OpenBCM V1.08-5-g2f4a (Linux)

Packet Radio Mailbox

IZ3LSV

[San Dona' di P. JN]

 Login: GUEST





  
CX2SA  > KEPS     15.06.12 04:31l 95 Lines 2463 Bytes #999 (0) @ WW
BID : ORB12166.O
Read: GUEST
Subj: Orbital Elements  12166.OSCAR
Path: IZ3LSV<IQ5KG<IK1NHL<CX2SA
Sent: 120615/0224Z @:CX2SA.SAL.URY.SA #:61419 [Salto] FBB7.00e $:ORB12166.O
From: CX2SA@CX2SA.SAL.URY.SA
To  : KEPS@AMSAT


HR AMSAT ORBITAL ELEMENTS FOR OSCAR SATELLITES
FROM WA5QGD FORT WORTH,TX June 14, 2012
Send SUBSCRIBE KEPS/UNSUBSCRIBE KEPS to majordomo@amsat.org only
BID: ORB12166.O
TO ALL RADIO AMATEURS BT

Satellite: AO-07
Catalog number: 07530
Epoch time:      12165.55407552
Element set:     404
Inclination:      101.4023 deg
RA of node:       162.9048 deg
Eccentricity:    0.0011736
Arg of perigee:   291.1406 deg
Mean anomaly:     068.8402 deg
Mean motion:   12.53589751 rev/day
Decay rate:       -2.7e-07 rev/day^2
Epoch rev:           71959
Checksum:              286

Satellite: FO-29
Catalog number: 24278
Epoch time:      12165.85803408
Element set:    0875
Inclination:      098.5860 deg
RA of node:       266.9475 deg
Eccentricity:    0.0351026
Arg of perigee:   038.0639 deg
Mean anomaly:     324.4750 deg
Mean motion:   13.52984571 rev/day
Decay rate:        5.6e-07 rev/day^2
Epoch rev:           78150
Checksum:              339

Satellite: SO-33
Catalog number: 25509
Epoch time:      12165.91561362
Element set:    0255
Inclination:      031.4338 deg
RA of node:       352.2096 deg
Eccentricity:    0.0352460
Arg of perigee:   174.7493 deg
Mean anomaly:     185.6965 deg
Mean motion:   14.28770724 rev/day
Decay rate:       4.80e-06 rev/day^2
Epoch rev:           71218
Checksum:              314

Satellite: RS-22
Catalog number: 27939
Epoch time:      12166.53679821
Element set:     446
Inclination:      097.8133 deg
RA of node:       007.4892 deg
Eccentricity:    0.0012310
Arg of perigee:   274.7905 deg
Mean anomaly:     085.1912 deg
Mean motion:   14.64040362 rev/day
Decay rate:       6.31e-06 rev/day^2
Epoch rev:           46549
Checksum:              311

Satellite: VO-52
Catalog number: 28650
Epoch time:      12165.61388063
Element set:     126
Inclination:      097.5971 deg
RA of node:       196.7431 deg
Eccentricity:    0.0027489
Arg of perigee:   054.4587 deg
Mean anomaly:     305.9175 deg
Mean motion:   14.82980063 rev/day
Decay rate:      1.564e-05 rev/day^2
Epoch rev:           38444
Checksum:              338

Satellite: HO-68
Catalog number: 36122
Epoch time:      12166.40321011
Element set:     552
Inclination:      100.3613 deg
RA of node:       225.8063 deg
Eccentricity:    0.0007813
Arg of perigee:   114.2244 deg
Mean anomaly:     245.9684 deg
Mean motion:   13.16296331 rev/day
Decay rate:       -4.4e-07 rev/day^2
Epoch rev:           12002
Checksum:              243



Read previous mail | Read next mail


 16.09.2025 07:33:46lGo back Go up